Location: Pasarilla del Rebollar
(40.6790°N, 5.0062°W)
Time: 11:02:39
(UTC+00:00)

Cosmos 1763 Rocket - Pass Details

Date: 22 April 2026
Orbit: 728 x 774 km, 74.0° (Epoch: 15 May)

Event Time Altitude Azimuth Distance (km) Brightness Sun altitude
Exits shadow 02:13:18 44° 81° (E) 1,060 4.4 -30.9°
Drops below altitude 10° 02:17:40 10° 31° (NNE) 2,324 6.9 -30.4°
Sets 02:20:08 0° 26° (NNE) 3,258 7.9 -30.1°
